Change the Weather History Date:

Saturday, November 2, 2013

  Actual Average Record
Temperature  
Mean Temperature 57 °F 59 °F  
Max Temperature 63 °F 67 °F 85 °F (1967)
Min Temperature 50 °F 51 °F 38 °F (1952)
Degree Days  
Heating Degree Days 8 6  
Month to date heating degree days 10 12  
Since 1 July heating degree days 286 299  
Cooling Degree Days 0 0  
Month to date cooling degree days 0 0  
Year to date cooling degree days 164 163  
Growing Degree Days 6 (Base 50)    
Moisture  
Dew Point 47 °F    
Average Humidity 73    
Maximum Humidity 89    
Minimum Humidity 56    
Precipitation  
Precipitation 0.00 in 0.06 in 0.53 in (2008)
Month to date precipitation 0.00 0.12  
Year to date precipitation 2.12 14.36  
Since 1 July precipitation 0.23 1.28  
Sea Level Pressure  
Sea Level Pressure 29.99 in    
Wind  
Wind Speed 13 mph (WNW)    
Max Wind Speed 28 mph    
Max Gust Speed 33 mph    
Visibility 9 miles    
Events      
T = Trace of Precipitation, MM = Missing Value Source: NWS Daily Summary

Daily Weather History Graph

Daily Weather History Graph

Search for Another Location

Airport or City:

Trip Planner

Search our weather history database for the weather conditions in past years. The results will help you decide how hot, cold, wet, or windy it might be!

Date:

Astronomy

Nov. 02, 2013 Rise Set
Actual Time 7:35 AM PDT 6:09 PM PDT
Civil Twilight 7:08 AM PDT 6:36 PM PDT
Nautical Twilight 6:37 AM PDT 7:07 PM PDT
Astronomical Twilight 6:07 AM PDT 7:38 PM PDT
Moon 6:39 AM PDT (11/2) 5:44 PM PDT (11/2)
Length of Visible Light 11h 28m
Length of Day
10h 33m
Waning Crescent, 1% of the Moon is Illuminated
Nov 2
Waning Crescent
Nov 3
New
Nov 9
First Quarter
Nov 17
Full
Nov 25
Last Quarter

Hourly Weather History & Observations

Time (PDT) Temp. Dew Point Humidity Pressure Visibility Wind Dir Wind Speed Gust Speed Precip Events Conditions
12:56 AM 57.0 °F 43.0 °F 59% 30.02 in 10.0 mi Calm Calm - N/A   Clear
1:56 AM 55.9 °F 43.0 °F 62% 30.02 in 10.0 mi Calm Calm - N/A   Clear
2:56 AM 54.0 °F 42.1 °F 64% 30.02 in 10.0 mi West 3.5 mph - N/A   Clear
3:56 AM 53.1 °F 41.0 °F 64% 30.01 in 10.0 mi West 5.8 mph - N/A   Clear
4:46 AM 53.6 °F 44.6 °F 72% 30.01 in 10.0 mi WNW 8.1 mph - N/A   Partly Cloudy
4:56 AM 52.0 °F 46.0 °F 80% 30.01 in 10.0 mi WNW 9.2 mph - N/A   Partly Cloudy
5:56 AM 51.1 °F 46.0 °F 83% 30.01 in 10.0 mi West 9.2 mph - N/A   Partly Cloudy
6:56 AM 51.1 °F 46.0 °F 83% 30.02 in 10.0 mi WNW 12.7 mph - N/A   Partly Cloudy
7:36 AM 51.8 °F 46.4 °F 82% 30.02 in 2.0 mi WNW 18.4 mph - N/A   Mostly Cloudy
7:56 AM 51.1 °F 46.9 °F 86% 30.03 in 2.0 mi WNW 17.3 mph - N/A   Mostly Cloudy
8:11 AM 51.8 °F 46.4 °F 82% 30.03 in 6.0 mi WNW 13.8 mph - N/A   Scattered Clouds
8:56 AM 52.0 °F 48.0 °F 86% 30.03 in 9.0 mi WNW 10.4 mph - N/A   Partly Cloudy
9:56 AM 54.0 °F 46.9 °F 77% 30.03 in 10.0 mi WNW 18.4 mph - N/A   Partly Cloudy
10:56 AM 55.0 °F 48.0 °F 77% 30.03 in 10.0 mi WNW 19.6 mph - N/A   Partly Cloudy
11:56 AM 55.9 °F 48.0 °F 75% 30.01 in 10.0 mi WNW 16.1 mph - N/A   Mostly Cloudy
12:56 PM 59.0 °F 48.0 °F 67% 29.99 in 10.0 mi WNW 11.5 mph - N/A   Mostly Cloudy
1:56 PM 62.1 °F 46.9 °F 58% 29.97 in 10.0 mi WNW 13.8 mph - N/A   Mostly Cloudy
2:56 PM 61.0 °F 48.9 °F 64% 29.96 in 10.0 mi West 23.0 mph 32.2 mph N/A   Overcast
3:56 PM 63.0 °F 51.1 °F 65% 29.96 in 10.0 mi West 24.2 mph - N/A   Overcast
4:56 PM 60.1 °F 50.0 °F 69% 29.94 in 10.0 mi West 10.4 mph 21.9 mph N/A   Mostly Cloudy
5:56 PM 59.0 °F 48.0 °F 67% 29.94 in 10.0 mi West 18.4 mph 28.8 mph N/A   Mostly Cloudy
6:56 PM 57.0 °F 46.9 °F 69% 29.93 in 10.0 mi West 9.2 mph - N/A   Scattered Clouds
7:56 PM 55.9 °F 46.0 °F 69% 29.94 in 10.0 mi West 12.7 mph - N/A   Partly Cloudy
8:56 PM 55.9 °F 46.9 °F 72% 29.94 in 10.0 mi West 18.4 mph - N/A   Clear
9:56 PM 55.9 °F 46.0 °F 69% 29.95 in 10.0 mi West 16.1 mph - N/A   Clear
10:56 PM 55.0 °F 46.0 °F 72% 29.97 in 10.0 mi West 13.8 mph - N/A   Clear
11:56 PM 54.0 °F 46.0 °F 75% 29.98 in 10.0 mi West 11.5 mph - N/A   Clear